Content
SEND FEEDBACK

Daily
Averages
Monthly
Summary
United States of America

SPIRO, OKLAHOMA


Home > North America > United States > Oklahoma
Elevation: 490 feet     Latitude: 35 15N     Longitude: 094 37W

WEATHER
 
SELECT A DAY
Number of Records: 298,207;   Date Range: 1/21/01 - 8/12/14
 
SHARE

PRINT THIS DATA

[ ← Previous Day ]
WEATHER ALMANAC - FEBRUARY 13, 2013
[ Next Day → ]
[ °C ]   °F
Weather ElementAverageHighLow
Temperature43.4 °F55.4 °F (2:35 pm)37.4 °F (12:35 am)
Dewpoint37.8 °F42.8 °F (12:15 pm)35.6 °F (1:35 am)
Humidity82.9 %100 % (12:35 am)47 % (4:35 pm)
Barometer30.02 in30.11 in (9:15 am)29.98 in (12:35 am)
Wind Speed3.9 mph10.4 mph (5:35 am)
Weather ElementAverage
Visibility9.9 mi
Wind DirectionSSE (172.7 °)

Weather ElementTotal
Precipitation0.02 in
Heating Degree Days18.6 (Base 65)
Averaged from 71 records on February 13, 2013
WEATHER CONDITIONS BREAKOUT
WIND DIRECTION BREAKOUT
WEATHER BY HOUR - FEBRUARY 13, 2013
[ °C ]   °F
Local TimeTemperatureDewpointHumidityBarometerVisibilityWind DirectionWind SpeedGust SpeedPrecipitationEventsConditions
12:35 AM37.4 °F37.4 °F100 %29.98 in7.0 miNNW (340°)8.1 mph0.01 inRainRain
12:55 AM37.4 °F37.4 °F100 %29.99 in7.0 miNNW (340°)9.2 mph0.01 inDrizzle
1:15 AM37.4 °F37.4 °F100 %29.99 in10.0 miNNW (340°)9.2 mphLight Drizzle
1:35 AM37.4 °F35.6 °F93 %29.99 in10.0 miNNW (340°)8.1 mphOvercast
1:55 AM37.4 °F37.4 °F100 %29.98 in10.0 miNorth (360°)6.9 mphOvercast
2:15 AM37.4 °F37.4 °F100 %29.98 in10.0 miNorth (350°)9.2 mphOvercast
2:35 AM37.4 °F37.4 °F100 %29.99 in10.0 miNNW (330°)3.5 mphOvercast
2:55 AM39.2 °F37.4 °F93 %29.99 in10.0 miCalmOvercast
3:15 AM39.2 °F37.4 °F93 %29.99 in10.0 miWNW (300°)3.5 mphOvercast
3:35 AM39.2 °F37.4 °F93 %29.99 in10.0 miWNW (290°)6.9 mphOvercast
3:55 AM37.4 °F37.4 °F100 %29.99 in10.0 miNW (310°)6.9 mphMostly Cloudy
4:15 AM37.4 °F37.4 °F100 %30.00 in10.0 miNW (310°)6.9 mphOvercast
4:35 AM37.4 °F37.4 °F100 %30.00 in10.0 miWNW (300°)3.5 mphOvercast
4:55 AM37.4 °F37.4 °F100 %30.01 in10.0 miCalmOvercast
5:15 AM37.4 °F37.4 °F100 %30.02 in10.0 miCalmOvercast
5:35 AM37.4 °F35.6 °F93 %30.03 in10.0 miWNW (300°)10.4 mphOvercast
5:55 AM37.4 °F37.4 °F100 %30.03 in10.0 miNW (320°)3.5 mphOvercast
6:15 AM37.4 °F37.4 °F100 %30.04 in10.0 miCalmOvercast
6:35 AM37.4 °F37.4 °F100 %30.04 in10.0 miWest (270°)3.5 mphOvercast
6:55 AM37.4 °F37.4 °F100 %30.04 in10.0 miCalmOvercast
7:15 AM37.4 °F37.4 °F100 %30.05 in10.0 miCalmOvercast
7:35 AM37.4 °F37.4 °F100 %30.06 in10.0 miWSW (240°)6.9 mphOvercast
7:55 AM37.4 °F37.4 °F100 %30.08 in10.0 miWSW (240°)6.9 mphOvercast
8:15 AM37.4 °F37.4 °F100 %30.08 in10.0 miCalmOvercast
8:35 AM37.4 °F37.4 °F100 %30.09 in10.0 miSSW (210°)3.5 mphOvercast
8:55 AM39.2 °F37.4 °F93 %30.10 in10.0 miCalmOvercast
9:15 AM41.0 °F39.2 °F93 %30.11 in10.0 miSW (220°)4.6 mphOvercast
9:35 AM41.0 °F37.4 °F87 %30.11 in10.0 miSouth (180°)3.5 mphOvercast
9:55 AM41.0 °F39.2 °F93 %30.10 in10.0 miSW (230°)4.6 mphOvercast
10:15 AM42.8 °F39.2 °F87 %30.09 in10.0 miWest (270°)5.8 mphMostly Cloudy
10:35 AM44.6 °F39.2 °F81 %30.09 in10.0 miWSW (240°)5.8 mphScattered Clouds
10:55 AM44.6 °F39.2 °F81 %30.09 in10.0 miSSW (200°)8.1 mphMostly Cloudy
11:15 AM44.6 °F39.2 °F81 %30.08 in10.0 miSW (230°)4.6 mphMostly Cloudy
11:35 AM46.4 °F41.0 °F81 %30.08 in10.0 miSouth (180°)3.5 mphMostly Cloudy
11:55 AM46.4 °F39.2 °F76 %30.08 in10.0 miWest (260°)3.5 mphScattered Clouds
12:15 PM50.0 °F42.8 °F76 %30.08 in10.0 miSW (230°)8.1 mphMostly Cloudy
12:35 PM51.8 °F42.8 °F71 %30.06 in10.0 miSW (220°)9.2 mphScattered Clouds
12:55 PM51.8 °F41.0 °F67 %30.05 in10.0 miSW (220°)6.9 mphScattered Clouds
1:15 PM51.8 °F41.0 °F67 %30.03 in10.0 miSW (220°)6.9 mphScattered Clouds
1:35 PM51.8 °F39.2 °F62 %30.02 in10.0 miSW (220°)9.2 mphClear
1:55 PM53.6 °F41.0 °F62 %30.02 in10.0 miWSW (240°)5.8 mphScattered Clouds
2:15 PM53.6 °F39.2 °F58 %30.01 in10.0 miWSW (250°)8.1 mphScattered Clouds
2:35 PM55.4 °F41.0 °F58 %30.00 in10.0 miWSW (240°)5.8 mphClear
2:55 PM55.4 °F39.2 °F54 %29.99 in10.0 miWSW (240°)4.6 mphScattered Clouds
3:15 PM55.4 °F39.2 °F54 %29.99 in10.0 miWSW (250°)3.5 mphScattered Clouds
3:35 PM55.4 °F37.4 °F51 %29.98 in10.0 miSW (230°)6.9 mphClear
3:55 PM55.4 °F37.4 °F51 %29.98 in10.0 miSSW (210°)3.5 mphClear
4:15 PM55.4 °F37.4 °F51 %29.98 in10.0 miWest (260°)9.2 mphClear
4:35 PM55.4 °F35.6 °F47 %29.98 in10.0 miNW (310°)3.5 mphClear
4:55 PM55.4 °F35.6 °F47 %29.98 in10.0 miWNW (290°)4.6 mphClear
5:15 PM55.4 °F35.6 °F47 %29.98 in10.0 miWest (260°)4.6 mphClear
5:35 PM53.6 °F35.6 °F51 %29.98 in10.0 miWSW (240°)4.6 mphClear
5:55 PM53.6 °F37.4 °F54 %29.98 in10.0 miSW (230°)3.5 mphClear
6:15 PM51.8 °F35.6 °F54 %29.98 in10.0 miCalmClear
6:35 PM48.2 °F37.4 °F66 %29.99 in10.0 miCalmClear
6:55 PM44.6 °F39.2 °F81 %29.99 in10.0 miCalmClear
7:15 PM44.6 °F37.4 °F76 %29.99 in10.0 miCalmClear
7:35 PM42.8 °F37.4 °F81 %30.00 in10.0 miCalmClear
7:55 PM42.8 °F37.4 °F81 %30.00 in10.0 miCalmClear
8:15 PM41.0 °F37.4 °F87 %30.00 in10.0 miCalmClear
8:35 PM41.0 °F37.4 °F87 %30.01 in10.0 miCalmClear
8:55 PM41.0 °F37.4 °F87 %30.01 in10.0 miCalmClear
9:15 PM37.4 °F35.6 °F93 %30.01 in10.0 miCalmClear
9:35 PM37.4 °F37.4 °F100 %30.01 in10.0 miCalmClear
9:55 PM39.2 °F35.6 °F87 %30.01 in10.0 miSSW (200°)4.6 mphClear
10:15 PM37.4 °F35.6 °F93 %30.02 in10.0 miCalmClear
10:35 PM39.2 °F35.6 °F87 %30.02 in10.0 miCalmClear
10:55 PM37.4 °F35.6 °F93 %30.02 in10.0 miSSW (200°)3.5 mphClear
11:15 PM37.4 °F35.6 °F93 %30.03 in10.0 miCalmClear
11:35 PM37.4 °F35.6 °F93 %30.03 in10.0 miCalmClear
11:55 PM37.4 °F37.4 °F100 %30.03 in10.0 miCalmClear
Hourly data recorded from KRKR, located miles away from Spiro, Oklahoma







STORIES FROM OUR PARTNERS